GW2062 Weather Reports


time (UTC)temp
C
wind
direction
speed
KPH
gust
KPH
rain 1hr
cm
rain 24hr
cm
rain mn
cm
humidity
%
barometer
mb
20260503180058 16 329 0.0 14.5 0.00 0.00 0.00 45 1006.3
20260503175549 16 325 0.0 14.5 0.00 0.00 0.00 43 1006.3
20260503175049 15 257 1.6 14.5 0.00 0.00 0.00 44 1006.5
20260503174553 15 188 1.6 14.5 0.00 0.00 0.00 44 1006.8
20260503174050 15 238 1.6 14.5 0.00 0.00 0.00 43 1006.8
20260503173549 15 261 0.0 16.1 0.00 0.00 0.00 44 1006.8
20260503173049 15 258 3.2 16.1 0.00 0.00 0.00 43 1006.9
20260503172547 15 266 0.0 17.7 0.00 0.00 0.00 44 1006.8
20260503172047 15 283 4.8 27.4 0.00 0.00 0.00 42 1006.9
20260503171549 16 291 4.8 27.4 0.00 0.00 0.00 43 1007.0
20260503171048 16 263 1.6 17.7 0.00 0.00 0.00 45 1006.9
20260503170546 15 207 0.0 16.1 0.00 0.00 0.00 46 1006.9
20260503150529 13 227 0.0 6.4 0.00 0.00 0.00 45 1007.9
20260503131100 7 301 0.0 1.6 0.00 0.03 0.00 60 1009.0
20260503130559 7 292 0.0 1.6 0.00 0.03 0.00 61 1009.0
20260503110528 0 259 0.0 0.0 0.00 0.03 0.00 89 1009.8
20260503081507 0 259 0.0 0.0 0.00 0.03 0.03 82 1010.6
20260503081008 1 259 0.0 0.0 0.00 0.03 0.03 81 1010.6
20260503080507 1 259 0.0 0.0 0.00 0.03 0.03 80 1010.7
20260503072505 1 224 0.0 0.0 0.00 0.03 0.03 76 1010.7
20260503072005 1 257 0.0 0.0 0.00 0.03 0.03 76 1010.7
20260503071505 1 236 0.0 0.0 0.00 0.03 0.03 76 1010.7
20260503071006 1 281 0.0 0.0 0.00 0.03 0.03 76 1010.6
20260503070509 1 251 0.0 0.0 0.00 0.03 0.03 76 1010.6
20260503055059 1 297 0.0 0.0 0.00 0.03 0.03 80 1010.9
20260503054612 1 231 0.0 0.0 0.00 0.03 0.03 80 1011.0
20260503053559 1 231 0.0 0.0 0.00 0.03 0.03 82 1011.0
20260503053058 1 231 0.0 0.0 0.00 0.03 0.03 82 1011.0
20260503052558 0 96 0.0 0.0 0.00 0.03 0.03 84 1011.0
20260503052058 0 96 0.0 0.0 0.00 0.03 0.03 85 1011.2
20260503051556 0 96 0.0 0.0 0.00 0.03 0.03 85 1011.2
20260503051056 0 96 0.0 0.0 0.00 0.03 0.03 86 1011.2
20260503050555 0 96 0.0 0.0 0.00 0.03 0.03 86 1011.3
20260503050054 0 96 0.0 0.0 0.00 0.03 0.03 87 1011.4
20260503045554 0 96 0.0 0.0 0.00 0.03 0.03 87 1011.4
20260503045053 0 96 0.0 0.0 0.00 0.03 0.03 87 1011.4
20260503044554 0 96 0.0 0.0 0.00 0.03 0.03 87 1011.4
20260503043554 0 96 0.0 0.0 0.00 0.03 0.03 85 1011.5
20260503043057 0 96 0.0 0.0 0.00 0.03 0.03 85 1011.5
20260503042556 0 96 0.0 0.0 0.00 0.03 0.03 84 1011.5
20260503042051 1 96 0.0 0.0 0.00 0.03 0.03 84 1011.6
20260503041551 1 96 0.0 0.0 0.00 0.03 0.03 84 1011.7
20260503041055 1 96 0.0 0.0 0.00 0.03 0.03 84 1011.7
20260503040551 1 96 0.0 0.0 0.00 0.03 0.03 83 1011.7
20260503040055 1 96 0.0 0.0 0.00 0.03 0.03 83 1011.7
20260503035551 1 96 0.0 0.0 0.00 0.03 0.03 82 1011.6
20260503035050 1 96 0.0 0.0 0.00 0.03 0.03 82 1011.7
20260503034551 1 96 0.0 0.0 0.00 0.03 0.03 81 1011.7
20260503033549 1 96 0.0 0.0 0.00 0.03 0.03 82 1011.7
20260503033049 1 96 0.0 0.0 0.00 0.03 0.03 81 1011.8
20260503032549 1 187 0.0 0.0 0.00 0.03 0.03 82 1011.8
20260503032049 1 187 0.0 0.0 0.00 0.03 0.03 82 1011.8
20260503031549 2 187 0.0 0.0 0.00 0.03 0.03 81 1011.8
20260503031051 2 187 0.0 0.0 0.00 0.03 0.03 80 1011.9
20260503030547 2 187 0.0 0.0 0.00 0.03 0.03 79 1011.8
20260503030048 2 187 0.0 0.0 0.00 0.03 0.03 78 1011.9
20260503025547 2 187 0.0 0.0 0.00 0.03 0.03 77 1011.9
20260503025047 2 187 0.0 0.0 0.00 0.03 0.03 77 1012.0
20260503024547 2 187 0.0 0.0 0.00 0.03 0.03 77 1012.1
20260503023545 2 187 0.0 0.0 0.00 0.03 0.03 77 1012.2
20260503023047 2 187 0.0 0.0 0.00 0.03 0.03 76 1012.2
20260503022544 2 187 0.0 0.0 0.00 0.03 0.03 77 1012.3
20260503022045 2 187 0.0 0.0 0.00 0.03 0.03 76 1012.3
20260503021544 2 219 0.0 0.0 0.00 0.03 0.03 76 1012.3
20260503021044 2 174 0.0 0.0 0.00 0.03 0.03 76 1012.3
20260503020545 2 149 0.0 0.0 0.00 0.03 0.03 76 1012.2
20260503020043 2 149 0.0 0.0 0.00 0.03 0.03 77 1012.2
20260503015546 2 148 0.0 0.0 0.00 0.03 0.03 78 1012.2
20260503015043 2 70 0.0 0.0 0.00 0.03 0.03 77 1012.3
20260503014553 2 70 0.0 0.0 0.00 0.03 0.03 78 1012.3
20260503013543 2 70 0.0 0.0 0.00 0.03 0.03 77 1012.2
20260503013045 2 70 0.0 0.0 0.00 0.03 0.03 77 1012.2
20260503012543 3 70 0.0 0.0 0.00 0.03 0.03 77 1012.2
20260503012043 3 70 0.0 0.0 0.00 0.03 0.03 77 1012.2
20260503011542 3 70 0.0 0.0 0.00 0.03 0.03 76 1012.2
20260503011044 3 70 0.0 0.0 0.00 0.03 0.03 76 1012.2
20260503010543 3 70 0.0 0.0 0.00 0.03 0.03 75 1012.2
20260503010048 3 70 0.0 0.0 0.00 0.03 0.03 73 1012.2
20260503005544 3 70 0.0 0.0 0.00 0.03 0.03 72 1012.2
20260503005042 4 70 0.0 0.0 0.00 0.03 0.03 71 1012.1
20260503004546 5 70 0.0 0.0 0.00 0.03 0.03 68 1012.1
20260503003541 5 70 0.0 0.0 0.00 0.03 0.03 68 1012.1
20260503003046 5 70 0.0 0.0 0.00 0.03 0.03 65 1012.0
20260503002541 5 70 0.0 0.0 0.00 0.03 0.03 65 1012.0
20260503002041 6 70 0.0 0.0 0.00 0.03 0.03 64 1012.1
20260503001547 6 70 0.0 0.0 0.00 0.03 0.03 62 1012.1
20260503001039 6 70 0.0 0.0 0.00 0.03 0.03 61 1012.0
20260503000539 6 70 0.0 0.0 0.00 0.03 0.03 60 1012.1
20260503000043 7 69 0.0 0.0 0.00 0.03 0.03 59 1012.2
20260502235539 7 69 0.0 0.0 0.00 0.03 0.03 58 1012.1
20260502235038 7 69 0.0 0.0 0.00 0.03 0.03 58 1012.2
20260502234549 7 69 0.0 0.0 0.00 0.03 0.03 59 1012.1
20260502233540 7 69 0.0 0.0 0.00 0.03 0.03 58 1012.2
20260502233042 6 51 0.0 0.0 0.00 0.03 0.03 59 1012.2
20260502232538 6 56 0.0 0.0 0.00 0.03 0.03 59 1012.3
20260502232038 6 56 0.0 0.0 0.00 0.03 0.03 62 1012.3
20260502231538 6 56 0.0 0.0 0.00 0.03 0.03 60 1012.4
20260502231038 6 108 0.0 0.0 0.00 0.03 0.03 59 1012.4
20260502230538 6 99 0.0 0.0 0.00 0.03 0.03 59 1012.4
20260502230038 6 27 0.0 0.0 0.00 0.03 0.03 61 1012.4
20260502225537 6 27 0.0 0.0 0.00 0.03 0.03 60 1012.4
20260502225037 6 72 0.0 0.0 0.00 0.03 0.03 62 1012.4
20260502224543 7 56 0.0 0.0 0.00 0.03 0.03 59 1012.4
20260502223533 7 23 0.0 0.0 0.00 0.03 0.03 61 1012.4
20260502223040 6 30 0.0 0.0 0.00 0.03 0.03 61 1012.5
20260502222533 6 40 0.0 0.0 0.00 0.03 0.03 61 1012.5
20260502222032 6 25 0.0 0.0 0.00 0.03 0.03 59 1012.6
20260502221532 6 51 0.0 0.0 0.00 0.03 0.03 60 1012.6
20260502221033 6 89 0.0 0.0 0.00 0.03 0.03 61 1012.6
20260502220531 6 120 0.0 0.0 0.00 0.03 0.03 61 1012.6
20260502220031 6 84 0.0 0.0 0.00 0.03 0.03 61 1012.7
20260502215531 6 27 0.0 0.0 0.00 0.03 0.03 62 1012.7
20260502215029 6 52 0.0 0.0 0.00 0.03 0.03 63 1012.7
20260502214530 6 75 0.0 0.0 0.00 0.03 0.03 62 1012.7
20260502213533 6 72 0.0 0.0 0.00 0.03 0.03 62 1012.7
20260502213032 6 85 0.0 0.0 0.00 0.03 0.03 63 1012.6
20260502212533 6 136 0.0 0.0 0.00 0.03 0.03 64 1012.6
20260502212032 6 56 0.0 0.0 0.00 0.03 0.03 65 1012.7
20260502211534 6 11 0.0 0.0 0.00 0.03 0.03 64 1012.7
20260502211032 6 8 0.0 0.0 0.00 0.03 0.03 64 1012.7
20260502210531 6 61 0.0 0.0 0.00 0.03 0.03 65 1012.7
20260502210036 6 51 0.0 0.0 0.00 0.03 0.03 64 1012.7
20260502205532 6 120 0.0 0.0 0.00 0.03 0.03 66 1012.6
20260502205031 6 58 0.0 0.0 0.00 0.03 0.03 65 1012.7
20260502204531 6 51 0.0 0.0 0.00 0.03 0.03 65 1012.7
20260502203530 6 65 0.0 0.0 0.00 0.03 0.03 64 1012.8
20260502203027 6 109 0.0 0.0 0.00 0.03 0.03 66 1012.9
20260502202527 6 109 0.0 0.0 0.00 0.03 0.03 64 1012.9
20260502202027 6 58 0.0 0.0 0.00 0.03 0.03 64 1012.9
20260502201527 6 58 0.0 0.0 0.00 0.03 0.03 64 1012.9
20260502201026 6 51 0.0 0.0 0.00 0.03 0.03 63 1013.0
20260502200528 6 27 0.0 0.0 0.00 0.03 0.03 64 1013.1
20260502200026 6 30 0.0 0.0 0.00 0.03 0.03 63 1013.1
20260502195526 6 112 0.0 0.0 0.00 0.03 0.03 63 1013.1
20260502195025 6 60 0.0 0.0 0.00 0.03 0.03 63 1013.1
20260502194531 6 51 0.0 0.0 0.00 0.03 0.03 65 1013.2
20260502193523 6 279 0.0 0.0 0.00 0.03 0.03 66 1013.3
20260502193022 6 94 0.0 0.0 0.00 0.03 0.03 65 1013.3
20260502192523 6 122 0.0 0.0 0.00 0.03 0.03 64 1013.4
20260502192021 6 92 0.0 0.0 0.00 0.03 0.03 64 1013.5
20260502191521 6 55 0.0 0.0 0.00 0.03 0.03 66 1013.6
20260502191023 6 129 0.0 0.0 0.00 0.03 0.03 67 1013.6
20260502190521 6 45 0.0 0.0 0.00 0.03 0.03 66 1013.6
20260502190025 6 236 0.0 0.0 0.00 0.03 0.03 67 1013.7
20260502185520 5 14 0.0 0.0 0.00 0.03 0.03 64 1013.7
20260502185021 6 61 0.0 0.0 0.00 0.03 0.03 67 1013.6
20260502184522 6 141 0.0 0.0 0.00 0.03 0.03 64 1013.7
20260502183521 6 100 0.0 0.0 0.00 0.03 0.03 67 1013.6
20260502183019 6 37 0.0 0.0 0.00 0.03 0.03 68 1013.7
20260502182518 6 41 0.0 0.0 0.00 0.03 0.03 68 1013.8
20260502182019 5 38 0.0 0.0 0.00 0.03 0.03 67 1013.9
20260502181527 5 44 0.0 0.0 0.00 0.03 0.03 68 1013.8
20260502181016 5 47 0.0 0.0 0.00 0.03 0.03 69 1013.9
20260502180517 5 62 0.0 0.0 0.00 0.03 0.03 69 1013.9